Weather in Chernyanoye

Russia / Tambov Oblast     52°59′40″N   41°29′46″E
temp.,
°C
wind,
m/s
gust,
m/s
humid.,
%
clouds,
%
prec.,
mm/h
press.,
hPa
HPBL,
m
27 february, sat
sat2700:00+1w5148891 0.0 1005461
03:00+1w6139295 0.0 1005636
06:00+1w6139599 0.0 1003763
09:00+1w7149399 0.1 1003965
12:00+1wnw8149899 0.4 1003829
15:00−6nnw7128399 0.8 1006779
18:00−7nnw51087100 0.1 1008739
21:00−8nnw4992100 0.1 1012492
28 february, sun
sun2800:00−10nnw389595 0.0 1012286
03:00−12nw369487 0.0 1014182
06:00−11nw369450 0.0 1014259
09:00−9nw259165 0.1 1015303
12:00−6nw348796 0.1 1015494
15:00−6nw358798 0.1 1015495
18:00−8nnw2494100 0.1 1016117
21:00−8n2595100 0.1 1018251
1 march, mon
mon100:00−10nne229696 0.0 102036
03:00−11n129661 0.0 102221
06:00−12n129638 0.0 102320
09:00−10nnw129257 0.0 1026145
12:00−6wnw228495 0.0 1026365
15:00−6w348790 0.0 1025317
18:00−8wsw239530 0.0 102461
21:00−6wsw4119436 0.0 1023279
2 march, tue
tue200:00−5wsw51294100 0.1 1020400
03:00−3wsw61393100 0.2 1017486
06:00−1wsw71496100 1.1 1012653
09:00+1w71497100 2.1 1009809
12:000wnw71297100 0.8 1008811
15:00+1nw71286100 1.3 10081054
18:00−2nw5148693 0.1 1009666
21:00−3wnw4129276 0.1 1011477
3 march, wed
wed300:00−3nw5139399 0.1 1010588
03:00−3nw5119399 0.2 1011552
06:00−4nw51293100 0.1 1011583
09:00−3nnw71287100 0.1 10131025
12:00−3nnw71183100 0.2 10141162
15:00−2nnw71179100 0.3 10161195
18:00−4nw4128894 0.0 1017492
21:00−6nw399347 0.1 1019235